Location: Antichan
(42.9728°N, 0.6667°E)
Time: 16:32:17
(UTC+00:00)

Meteor 2-20 Rocket - Pass Details

Date: 15 August 2020
Orbit: 940 x 960 km, 82.5° (Epoch: 20 September)

Event Time Altitude Azimuth Distance (km) Brightness Sun altitude
Rises 20:07:30 0° 353° (N) 3,650 8.1 -12.1°
Reaches altitude 10° 20:10:02 10° 356° (N) 2,698 7.3 -12.5°
Maximum altitude 20:16:12 70° 80° (E) 1,014 4.4 -13.4°
Enters shadow 20:22:00 11° 164° (SSE) 2,563 6.2 -14.3°
